Time,TemperatureF,DewpointF,PressureIn,WindDirection,WindDirectionDegrees,WindSpeedMPH,WindSpeedGustMPH,Humidity,HourlyPrecipIn,Conditions,Clouds,dailyrainin,SoftwareType,DateUTC
2013-02-04 00:07:00,50.3,47.0,30.08,SE,143,0.0,0.0,89,0.00,,,0.00,weatherlink.com 1.10,2013-02-04 05:07:00,
2013-02-04 00:22:00,50.4,48.0,30.07,SSE,156,0.0,3.0,90,0.00,,,0.00,weatherlink.com 1.10,2013-02-04 05:22:00,
2013-02-04 00:37:00,51.2,47.0,30.08,NW,309,0.0,4.0,86,0.00,,,0.00,weatherlink.com 1.10,2013-02-04 05:37:00,
2013-02-04 00:52:00,51.7,47.0,30.07,West,278,0.0,0.0,83,0.00,,,0.00,weatherlink.com 1.10,2013-02-04 05:52:00,
2013-02-04 01:07:00,51.1,47.0,30.07,West,276,0.0,1.0,85,0.00,,,0.00,weatherlink.com 1.10,2013-02-04 06:07:00,
2013-02-04 01:22:00,50.5,47.0,30.07,West,276,0.0,0.0,88,0.00,,,0.00,weatherlink.com 1.10,2013-02-04 06:22:00,
2013-02-04 01:37:00,49.9,47.0,30.07,West,276,0.0,0.0,88,0.00,,,0.00,weatherlink.com 1.10,2013-02-04 06:37:00,
2013-02-04 01:52:00,49.4,47.0,30.07,West,276,0.0,0.0,90,0.00,,,0.00,weatherlink.com 1.10,2013-02-04 06:52:00,
2013-02-04 02:07:00,49.1,47.0,30.07,West,276,0.0,0.0,91,0.00,,,0.00,weatherlink.com 1.10,2013-02-04 07:07:00,
2013-02-04 02:23:00,49.5,48.0,30.07,West,276,0.0,0.0,93,0.00,,,0.00,weatherlink.com 1.10,2013-02-04 07:23:00,
2013-02-04 02:38:00,50.0,48.0,30.07,West,276,0.0,0.0,92,0.00,,,0.00,weatherlink.com 1.10,2013-02-04 07:38:00,
2013-02-04 02:53:00,49.9,48.0,30.07,West,281,0.0,1.0,93,0.00,,,0.00,weatherlink.com 1.10,2013-02-04 07:53:00,
2013-02-04 03:08:00,50.5,49.0,30.07,West,281,0.0,1.0,94,0.00,,,0.00,weatherlink.com 1.10,2013-02-04 08:08:00,
2013-02-04 03:23:00,50.6,49.0,30.07,West,281,0.0,0.0,94,0.00,,,0.00,weatherlink.com 1.10,2013-02-04 08:23:00,
2013-02-04 03:38:00,50.7,49.0,30.07,West,281,0.0,0.0,94,0.00,,,0.00,weatherlink.com 1.10,2013-02-04 08:38:00,
2013-02-04 03:53:00,49.9,48.0,30.07,West,281,0.0,1.0,94,0.00,,,0.00,weatherlink.com 1.10,2013-02-04 08:53:00,
2013-02-04 04:08:00,50.1,49.0,30.07,West,281,0.0,1.0,94,0.00,,,0.00,weatherlink.com 1.10,2013-02-04 09:08:00,
2013-02-04 04:23:00,50.0,48.0,30.07,West,267,0.0,3.0,93,0.00,,,0.00,weatherlink.com 1.10,2013-02-04 09:23:00,
2013-02-04 04:38:00,50.0,47.0,30.07,ESE,105,0.0,1.0,90,0.00,,,0.00,weatherlink.com 1.10,2013-02-04 09:38:00,
2013-02-04 04:53:00,50.4,46.0,30.07,NE,49,0.0,2.0,86,0.00,,,0.00,weatherlink.com 1.10,2013-02-04 09:53:00,
2013-02-04 05:08:00,50.5,45.0,30.07,ENE,65,0.0,1.0,82,0.00,,,0.00,weatherlink.com 1.10,2013-02-04 10:08:00,
2013-02-04 05:23:00,50.2,44.0,30.08,NW,316,0.0,1.0,80,0.00,,,0.00,weatherlink.com 1.10,2013-02-04 10:23:00,
2013-02-04 05:38:00,50.4,44.0,30.08,NW,307,0.0,1.0,79,0.00,,,0.00,weatherlink.com 1.10,2013-02-04 10:38:00,
2013-02-04 05:53:00,49.7,43.0,30.08,NW,306,0.0,1.0,79,0.00,,,0.00,weatherlink.com 1.10,2013-02-04 10:53:00,
2013-02-04 06:08:00,49.2,43.0,30.09,WNW,302,0.0,1.0,80,0.00,,,0.00,weatherlink.com 1.10,2013-02-04 11:08:00,
2013-02-04 06:23:00,48.0,43.0,30.09,WNW,302,0.0,0.0,84,0.00,,,0.00,weatherlink.com 1.10,2013-02-04 11:23:00,
2013-02-04 06:38:00,47.3,43.0,30.09,WNW,302,0.0,0.0,85,0.00,,,0.00,weatherlink.com 1.10,2013-02-04 11:38:00,
2013-02-04 06:53:00,47.3,43.0,30.09,WNW,302,0.0,1.0,85,0.00,,,0.00,weatherlink.com 1.10,2013-02-04 11:53:00,
2013-02-04 07:08:00,47.0,43.0,30.10,WNW,302,0.0,0.0,85,0.00,,,0.00,weatherlink.com 1.10,2013-02-04 12:08:00,
2013-02-04 07:23:00,46.5,43.0,30.10,WNW,302,0.0,0.0,87,0.00,,,0.00,weatherlink.com 1.10,2013-02-04 12:23:00,
2013-02-04 07:38:00,47.6,45.0,30.11,WNW,302,0.0,0.0,90,0.00,,,0.00,weatherlink.com 1.10,2013-02-04 12:38:00,
2013-02-04 07:53:00,49.8,46.0,30.11,WNW,302,0.0,0.0,87,0.00,,,0.00,weatherlink.com 1.10,2013-02-04 12:53:00,
2013-02-04 08:08:00,52.6,47.0,30.11,NW,321,0.0,1.0,81,0.00,,,0.00,weatherlink.com 1.10,2013-02-04 13:08:00,
2013-02-04 08:23:00,55.4,47.0,30.11,WNW,294,1.0,3.0,74,0.00,,,0.00,weatherlink.com 1.10,2013-02-04 13:23:00,
2013-02-04 08:38:00,56.4,47.0,30.11,NW,325,0.0,3.0,71,0.00,,,0.00,weatherlink.com 1.10,2013-02-04 13:38:00,
2013-02-04 08:53:00,58.2,47.0,30.11,NNE,16,0.0,3.0,67,0.00,,,0.00,weatherlink.com 1.10,2013-02-04 13:53:00,
2013-02-04 09:08:00,59.0,47.0,30.12,WNW,296,0.0,2.0,65,0.00,,,0.00,weatherlink.com 1.10,2013-02-04 14:08:00,
2013-02-04 09:23:00,59.5,47.0,30.12,WNW,295,0.0,4.0,63,0.00,,,0.00,weatherlink.com 1.10,2013-02-04 14:23:00,
2013-02-04 09:38:00,61.0,48.0,30.13,West,278,1.0,2.0,63,0.00,,,0.00,weatherlink.com 1.10,2013-02-04 14:38:00,
2013-02-04 09:53:00,62.3,48.0,30.12,NNW,327,0.0,3.0,59,0.00,,,0.00,weatherlink.com 1.10,2013-02-04 14:53:00,
2013-02-04 10:08:00,64.0,46.0,30.13,NNE,16,0.0,2.0,53,0.00,,,0.00,weatherlink.com 1.10,2013-02-04 15:08:00,
2013-02-04 10:23:00,65.6,45.0,30.12,WNW,291,1.0,2.0,47,0.00,,,0.00,weatherlink.com 1.10,2013-02-04 15:23:00,
2013-02-04 10:38:00,66.1,44.0,30.12,ESE,110,1.0,2.0,45,0.00,,,0.00,weatherlink.com 1.10,2013-02-04 15:38:00,
2013-02-04 10:53:00,68.2,46.0,30.11,West,276,0.0,4.0,46,0.00,,,0.00,weatherlink.com 1.10,2013-02-04 15:53:00,
2013-02-04 11:08:00,70.5,46.0,30.11,ESE,109,0.0,2.0,42,0.00,,,0.00,weatherlink.com 1.10,2013-02-04 16:08:00,
2013-02-04 11:23:00,69.5,46.0,30.10,SW,225,2.0,3.0,43,0.00,,,0.00,weatherlink.com 1.10,2013-02-04 16:23:00,
2013-02-04 11:38:00,71.1,47.0,30.09,SW,231,3.0,3.0,42,0.00,,,0.00,weatherlink.com 1.10,2013-02-04 16:38:00,
2013-02-04 11:53:00,71.5,47.0,30.09,WNW,294,0.0,6.0,42,0.00,,,0.00,weatherlink.com 1.10,2013-02-04 16:53:00,
2013-02-04 12:08:00,72.9,46.0,30.08,WSW,243,1.0,3.0,39,0.00,,,0.00,weatherlink.com 1.10,2013-02-04 17:08:00,
2013-02-04 12:23:00,73.6,43.0,30.07,ESE,111,1.0,6.0,34,0.00,,,0.00,weatherlink.com 1.10,2013-02-04 17:23:00,
2013-02-04 12:38:00,73.9,45.0,30.06,NE,56,0.0,5.0,36,0.00,,,0.00,weatherlink.com 1.10,2013-02-04 17:38:00,
2013-02-04 12:53:00,74.9,46.0,30.06,NW,309,5.0,6.0,36,0.00,,,0.00,weatherlink.com 1.10,2013-02-04 17:53:00,
2013-02-04 13:08:00,75.5,46.0,30.05,SSE,158,3.0,4.0,35,0.00,,,0.00,weatherlink.com 1.10,2013-02-04 18:08:00,
2013-02-04 13:23:00,75.5,47.0,30.03,West,270,1.0,2.0,36,0.00,,,0.00,weatherlink.com 1.10,2013-02-04 18:23:00,
2013-02-04 13:38:00,75.4,45.0,30.03,West,272,1.0,5.0,34,0.00,,,0.00,weatherlink.com 1.10,2013-02-04 18:38:00,
2013-02-04 13:53:00,76.5,47.0,30.03,East,98,2.0,7.0,35,0.00,,,0.00,weatherlink.com 1.10,2013-02-04 18:53:00,
2013-02-04 14:09:00,76.6,48.0,30.02,South,186,3.0,6.0,37,0.00,,,0.00,weatherlink.com 1.10,2013-02-04 19:09:00,
2013-02-04 14:24:00,76.5,47.0,30.01,East,84,3.0,6.0,35,0.00,,,0.00,weatherlink.com 1.10,2013-02-04 19:24:00,
2013-02-04 14:39:00,76.0,52.0,30.01,East,97,5.0,8.0,43,0.00,,,0.00,weatherlink.com 1.10,2013-02-04 19:39:00,
2013-02-04 14:54:00,75.5,53.0,30.01,South,172,6.0,13.0,46,0.00,,,0.00,weatherlink.com 1.10,2013-02-04 19:54:00,
2013-02-04 15:09:00,74.2,54.0,30.01,SSW,195,3.0,9.0,49,0.00,,,0.00,weatherlink.com 1.10,2013-02-04 20:09:00,
2013-02-04 15:24:00,74.0,54.0,30.01,ENE,75,3.0,9.0,49,0.00,,,0.00,weatherlink.com 1.10,2013-02-04 20:24:00,
2013-02-04 15:39:00,73.1,54.0,30.01,SSE,148,5.0,10.0,51,0.00,,,0.00,weatherlink.com 1.10,2013-02-04 20:39:00,
2013-02-04 15:54:00,72.9,54.0,30.01,South,191,1.0,7.0,52,0.00,,,0.00,weatherlink.com 1.10,2013-02-04 20:54:00,
2013-02-04 16:09:00,71.8,55.0,30.01,East,84,2.0,6.0,56,0.00,,,0.00,weatherlink.com 1.10,2013-02-04 21:09:00,
2013-02-04 16:24:00,72.3,55.0,30.01,ENE,73,3.0,5.0,54,0.00,,,0.00,weatherlink.com 1.10,2013-02-04 21:24:00,
2013-02-04 16:39:00,72.9,55.0,30.01,East,101,3.0,6.0,53,0.00,,,0.00,weatherlink.com 1.10,2013-02-04 21:39:00,
2013-02-04 16:54:00,73.3,56.0,30.02,ESE,116,4.0,5.0,54,0.00,,,0.00,weatherlink.com 1.10,2013-02-04 21:54:00,
2013-02-04 17:09:00,72.3,55.0,30.02,SE,138,0.0,4.0,55,0.00,,,0.00,weatherlink.com 1.10,2013-02-04 22:09:00,
2013-02-04 17:24:00,70.6,55.0,30.02,ESE,111,1.0,4.0,58,0.00,,,0.00,weatherlink.com 1.10,2013-02-04 22:24:00,
2013-02-04 17:39:00,70.2,56.0,30.02,SE,146,1.0,3.0,60,0.00,,,0.00,weatherlink.com 1.10,2013-02-04 22:39:00,
2013-02-04 17:54:00,69.9,55.0,30.02,ESE,105,1.0,4.0,60,0.00,,,0.00,weatherlink.com 1.10,2013-02-04 22:54:00,
2013-02-04 18:09:00,69.3,55.0,30.02,SE,139,1.0,3.0,61,0.00,,,0.00,weatherlink.com 1.10,2013-02-04 23:09:00,
2013-02-04 18:24:00,68.3,55.0,30.02,ESE,122,0.0,2.0,63,0.00,,,0.00,weatherlink.com 1.10,2013-02-04 23:24:00,
2013-02-04 18:39:00,67.4,56.0,30.03,ESE,111,0.0,0.0,66,0.00,,,0.00,weatherlink.com 1.10,2013-02-04 23:39:00,
2013-02-04 18:54:00,66.2,56.0,30.03,SE,127,0.0,1.0,69,0.00,,,0.00,weatherlink.com 1.10,2013-02-04 23:54:00,
2013-02-04 19:09:00,65.0,56.0,30.03,ESE,108,0.0,1.0,73,0.00,,,0.00,weatherlink.com 1.10,2013-02-05 00:09:00,
2013-02-04 19:24:00,63.6,55.0,30.04,ESE,108,0.0,0.0,74,0.00,,,0.00,weatherlink.com 1.10,2013-02-05 00:24:00,
2013-02-04 19:39:00,62.9,56.0,30.04,ESE,105,0.0,1.0,78,0.00,,,0.00,weatherlink.com 1.10,2013-02-05 00:39:00,
2013-02-04 19:54:00,61.8,56.0,30.04,ESE,104,0.0,1.0,82,0.00,,,0.00,weatherlink.com 1.10,2013-02-05 00:54:00,
2013-02-04 20:09:00,60.9,55.0,30.04,ESE,110,0.0,0.0,82,0.00,,,0.00,weatherlink.com 1.10,2013-02-05 01:09:00,
2013-02-04 20:24:00,60.8,56.0,30.04,ESE,111,0.0,0.0,83,0.00,,,0.00,weatherlink.com 1.10,2013-02-05 01:24:00,
2013-02-04 20:39:00,59.9,56.0,30.05,ESE,106,1.0,1.0,87,0.00,,,0.00,weatherlink.com 1.10,2013-02-05 01:39:00,
2013-02-04 20:54:00,59.5,56.0,30.05,ESE,105,0.0,0.0,87,0.00,,,0.00,weatherlink.com 1.10,2013-02-05 01:54:00,
2013-02-04 21:09:00,59.3,57.0,30.05,ESE,106,0.0,0.0,91,0.00,,,0.00,weatherlink.com 1.10,2013-02-05 02:09:00,
2013-02-04 21:25:00,58.4,56.0,30.05,ESE,106,0.0,0.0,91,0.00,,,0.00,weatherlink.com 1.10,2013-02-05 02:25:00,
2013-02-04 21:40:00,57.5,55.0,30.05,ESE,106,0.0,0.0,92,0.00,,,0.00,weatherlink.com 1.10,2013-02-05 02:40:00,
2013-02-04 21:55:00,57.0,55.0,30.05,ESE,106,0.0,0.0,92,0.00,,,0.00,weatherlink.com 1.10,2013-02-05 02:55:00,
2013-02-04 22:10:00,57.2,55.0,30.05,ESE,120,0.0,1.0,93,0.00,,,0.00,weatherlink.com 1.10,2013-02-05 03:10:00,
2013-02-04 22:25:00,56.8,55.0,30.05,ESE,120,0.0,0.0,94,0.00,,,0.00,weatherlink.com 1.10,2013-02-05 03:25:00,